{"data":{"norad_id":60391,"epoch":"2026-05-25T04:12:31.106592Z","epoch_age_seconds":53153,"freshness":"FRESH","line1":"1 60391U 24140N   26145.17536003  .00000087  00000+0  11616-3 0  9995","line2":"2 60391  88.9709 282.4449 0015025  97.5677 262.7182 13.51008288 89336","mean_motion":13.51008288,"eccentricity":0.0015025,"inclination_deg":88.9709,"raan_deg":282.4449,"arg_perigee_deg":97.5677,"mean_anomaly_deg":262.7182,"bstar":0.00011616,"rev_number":8933,"period_min":106.5870589241,"perigee_km":1057.3624808217,"apogee_km":1079.7397786515,"semimajor_km":7446.6881297366,"source":"CELESTRAK","updated_at":"2026-05-25T13:38:02.042686Z"}}